Renton, WA
on Thursday, January 31, 2013

Thursday
Previous Day Next Day
Daily Summary
 ActualAverage (KSEA)Record (KSEA)
Temperature
Mean Temperature °F 43°F  
Max Temperature 51°F 49°F 61°F (1960)
Min Temperature 46°F 37°F 0°F (1950)
Degree Days
Heating Degree Days 16 22  
Month to date heating degree days 710  
Since 1 July heating degree days 2649  
Cooling Degree Days 0 0  
Month to date cooling degree days 0  
Year to date cooling degree days 0  
Moisture
Dew Point 46°F   
Average Humidity 93    
Maximum Humidity 100    
Minimum Humidity 76    
Precipitation
Precipitation 0.09 in 0.16 in 1.93 in (1987)
Month to date precipitation 5.57  
Year to date precipitation 5.57  
Snow
Snow 0.00 in in 2.00 in (1969)
Month to date snowfall  
Since 1 July snowfall  
Snow Depth in   
Wind
Wind Speed 3 mph   
Max Wind Speed 13 mph   
Max Gust Speed 20 mph   
Visibility 7 miles   
Events Rain   

Key: T is trace of precipitation, MM is missing value
Source: NWS Daily Summary
Time(PST)TemperatureDew PointHumidity Pressure Visibility Wind DirectionWind SpeedGust SpeedPrecipitationEvents Conditions
12:51 AM 46.4°F 46.4°F 100% 30.39 in 2.5 miles Calm Calm - 0.00 in   Overcast
12:53 AM 46.9°F 46.9°F 100% 30.40 in 2.5 miles Calm Calm - 0.00 in   Overcast
1:31 AM 46.4°F 46.4°F 100% 30.39 in 3.0 miles SE 4.6 mph - 0.01 in   Overcast
1:53 AM 46.9°F 46.9°F 100% 30.41 in 8.0 miles SE 3.5 mph - 0.01 in   Overcast
2:43 AM 46.4°F 46.4°F 100% 30.40 in 4.0 miles East 3.5 mph - 0.01 in Rain Light Rain
2:53 AM 46.9°F 46.9°F 100% 30.41 in 3.0 miles Calm Calm - 0.01 in   Overcast
3:53 AM 46.9°F 46.0°F 97% 30.42 in 8.0 miles SE 4.6 mph - 0.00 in   Overcast
4:06 AM 46.4°F 46.4°F 100% 30.40 in 6.0 miles SSE 3.5 mph - 0.01 in Rain Light Rain
4:53 AM 46.9°F 46.0°F 97% 30.41 in 5.0 miles East 3.5 mph - 0.02 in Rain Light Rain
5:53 AM 46.9°F 46.0°F 97% 30.40 in 10.0 miles South 3.5 mph - 0.00 in   Overcast
6:17 AM 46.4°F 46.4°F 100% 30.38 in 10.0 miles Calm Calm - N/A   Overcast
6:53 AM 46.9°F 46.0°F 97% 30.39 in 10.0 miles SE 3.5 mph - N/A   Overcast
7:53 AM 48.0°F 45.0°F 89% 30.40 in 10.0 miles SSW 3.5 mph - N/A   Overcast
8:53 AM 48.0°F 44.1°F 86% 30.39 in 10.0 miles South 9.2 mph - N/A   Mostly Cloudy
9:01 AM 48.2°F 44.6°F 87% 30.37 in 10.0 miles SSE 4.6 mph - N/A   Mostly Cloudy
9:53 AM 48.9°F 44.1°F 83% 30.39 in 10.0 miles SSE 6.9 mph - N/A   Overcast
10:53 AM 48.0°F 44.1°F 86% 30.38 in 9.0 miles SE 5.8 mph - 0.02 in Rain Light Rain
11:53 AM 48.9°F 44.1°F 83% 30.38 in 10.0 miles SSE 6.9 mph - 0.00 in   Overcast
12:53 PM 48.9°F 46.0°F 90% 30.35 in 10.0 miles SE 5.8 mph - N/A   Overcast
1:53 PM 51.1°F 45.0°F 80% 30.33 in 10.0 miles SSE 10.4 mph - N/A   Overcast
2:34 PM 51.8°F 44.6°F 76% 30.31 in 10.0 miles SSE 12.7 mph 19.6 mph N/A   Overcast
2:53 PM 51.1°F 44.1°F 77% 30.32 in 10.0 miles South 8.1 mph - N/A   Overcast
3:53 PM 51.8°F 44.6°F 76% 30.30 in 10.0 miles SSE 8.1 mph - N/A   Overcast
4:53 PM 50.0°F 45.0°F 83% 30.33 in 10.0 miles SSW 5.8 mph - N/A   Overcast
5:53 PM 50.0°F 44.1°F 80% 30.33 in 10.0 miles South 3.5 mph - N/A   Overcast
6:53 PM 48.9°F 46.0°F 90% 30.33 in 4.0 miles Calm Calm - N/A   Overcast
7:53 PM 48.0°F 46.9°F 96% 30.33 in 4.0 miles Calm Calm - N/A   Overcast
8:13 PM 48.2°F 46.4°F 93% 30.32 in 3.0 miles Calm Calm - 0.00 in Rain Light Rain
8:22 PM 48.2°F 46.4°F 93% 30.32 in 2.5 miles Calm Calm - 0.01 in Rain Light Rain
8:53 PM 46.9°F 46.9°F 100% 30.34 in 2.0 miles Calm Calm - 0.02 in Rain Light Rain
9:38 PM 46.4°F 46.4°F 100% 30.32 in 4.0 miles Calm Calm - 0.00 in   Overcast
9:53 PM 46.4°F 46.4°F 100% 30.32 in 4.0 miles Calm Calm - N/A   Overcast
10:01 PM 46.4°F 46.4°F 100% 30.32 in 4.0 miles Calm Calm - N/A   Overcast
10:08 PM 46.4°F 46.4°F 100% 30.32 in 4.0 miles Calm Calm - N/A   Overcast
10:36 PM 46.4°F 46.4°F 100% 30.32 in 2.5 miles South 4.6 mph - 0.01 in Rain Light Rain
10:53 PM 46.9°F 46.9°F 100% 30.34 in 4.0 miles SSE 3.5 mph - 0.01 in   Overcast
11:53 PM 46.9°F 46.0°F 97% 30.35 in 4.0 miles SSE 3.5 mph - N/A   Overcast
Moon Phase
Jan. 31 Feb. 03 Feb. 10 Feb. 17 Feb. 25
Sunrise:07:35 AM (PST) Moon Rise:10:44 PM (PST)1/31
Sunset:05:09 PM (PST) Moon Set:09:14 AM (PST)1/31

Copyright © 2014 The Weather Underground, Inc.